Flag for Burundi Weather past 2 weeks in Muyinga, Burundi

Now
75 °F

Scattered clouds.


Feels Like: 78 °F
Forecast: 58 / 77 °F
Wind: 3 mph from Southwest

Location: Kigali Airport

Current Time: Aug 2, 2014 at 9:38:04 AM

Latest Report: Aug 2, 2014 at 9:00 AM


Visibility: N/A

Pressure: 30.21 "Hg

Humidity: 54%

Dew point: 57 °F

Location of MuyingaLocation

Historic Weather in Muyinga — Graph

°F

Muyinga temperature yesterday

Maximum temperature yesterday: 84 °F (at 2:30 PM)
Minimum temperature yesterday: 61 °F (at 5:30 AM)
Average temperature yesterday: 72 °F

Past Weeks' High & Low Weather Summary

 TemperatureHumidityPressure
High84 °F (Jul 19, 2:00 PM)100% (Jul 19, 4:00 AM)30.27 "Hg (Jul 19, 4:00 AM)
Low55 °F (Jul 19, 4:00 AM)32% (Jul 23, 3:00 PM)30.07 "Hg (Jul 25, 3:00 PM)
Average72 °F61%30.17 "Hg
* Reported Jul 18 8:00 AM — Aug 2 8:30 AM, Muyinga, Weather by CustomWeather, © 2014

Note: Actual official high and low records may vary slightly from our data, if they occured in-between our weather recording intervals... More about our weather records

Advertising

Muyinga weather history for previous 24 hours

 ConditionsComfort  
Time TempWeatherWind HumidityBarometerVisibility
8:30 AM
Aug 2
73 °FScattered clouds.3 mph53%30.21 "HgN/A
8:00 AM68 °FScattered clouds.No wind69%30.21 "HgN/A
7:30 AM66 °FScattered clouds.No wind78%30.18 "HgN/A
7:00 AM66 °FBroken clouds.No wind78%30.18 "HgN/A
6:30 AM66 °FBroken clouds.No wind73%30.18 "HgN/A
6:00 AM66 °FPartly cloudy.No wind78%30.15 "HgN/A
5:30 AM66 °FPassing clouds.No wind68%30.15 "HgN/A
5:00 AM66 °FPassing clouds.3 mph73%30.15 "HgN/A
4:30 AM66 °FPassing clouds.3 mph73%30.12 "HgN/A
3:30 AM66 °FPassing clouds.No wind68%30.12 "HgN/A
3:00 AM68 °FPassing clouds.No wind69%30.12 "HgN/A
2:30 AM68 °FPassing clouds.No wind69%30.12 "HgN/A
2:00 AM68 °FPassing clouds.3 mph64%30.12 "HgN/A
1:00 AM68 °FPassing clouds.5 mph64%30.15 "HgN/A
12:00 AM68 °FPassing clouds.5 mph64%30.15 "HgN/A
11:00 PM
Aug 1
70 °FPassing clouds.No wind60%30.18 "HgN/A
9:00 PM77 °FPassing clouds.5 mph44%30.12 "HgN/A
8:00 PM79 °FPassing clouds.6 mph42%30.12 "HgN/A
7:30 PM79 °FPassing clouds.5 mph42%30.09 "HgN/A
7:00 PM79 °FPassing clouds.5 mph42%30.09 "HgN/A
6:00 PM81 °FPassing clouds.5 mph39%30.07 "HgN/A
5:30 PM82 °FScattered clouds.8 mph37%30.09 "HgN/A
5:00 PM82 °FScattered clouds.7 mph37%30.09 "HgN/A
4:30 PM82 °FScattered clouds.7 mph37%30.09 "HgN/A
3:30 PM84 °FScattered clouds.5 mph37%30.09 "HgN/A
2:30 PM84 °FScattered clouds.6 mph35%N/AN/A
1:30 PM82 °FScattered clouds.6 mph37%30.15 "HgN/A
1:00 PM81 °FScattered clouds.6 mph37%30.15 "HgN/A
12:30 PM81 °FPassing clouds.6 mph39%30.15 "HgN/A
11:30 AM79 °FPassing clouds.12 mph45%30.18 "HgN/A
11:00 AM77 °FPassing clouds.9 mph47%30.21 "HgN/A
10:30 AM75 °FPassing clouds.8 mph47%30.21 "HgN/A
10:00 AM75 °FPassing clouds.8 mph50%30.21 "HgN/A
9:30 AM73 °FSunny.9 mph53%30.21 "Hg10 mi
9:00 AM73 °FSunny.6 mph53%30.21 "Hg10 mi
Weather by CustomWeather, © 2014

See weather overviewHow to use our weather pages